This demonstration page uses our WeatherBlox Daily Observations layout. Learn more.

Hourly Observations for September 20, 2019

Temp ( °F °C ) Dew Point ( °F °C ) Humidity (%) Winds ( mph kmh ) Pressure ( in mb ) Visibility ( mi km ) Precip ( " mm )
12:53 am 00:53 Mostly Clear 70 21.1 65 18.3 84 84 Calm 30.09 1019 10 16.09344 0 0
1:53 am 01:53 Clear 69 20.6 65 18.3 87 87 Calm 30.09 1019 10 16.09344 0 0
2:53 am 02:53 Clear 68 20 65 18.3 90 90 Calm 30.09 1019 10 16.09344 0 0
3:53 am 03:53 Clear 66 18.9 64 17.8 93 93 Calm 30.12 1020 10 16.09344 0 0
4:53 am 04:53 Clear 65 18.3 63 17.2 93 93 Calm 30.12 1020 9 14.484096 0 0
5:53 am 05:53 Clear 66 18.9 64 17.8 93 93 ESE 3 6 30.12 1020 10 16.09344 0 0
6:53 am 06:53 Clear 64 17.8 63 17.2 96 96 Calm 30.12 1020 8 12.874752 0 0
7:53 am 07:53 Sunny 66 18.9 64 17.8 93 93 Calm 30.15 1021 9 14.484096 0 0
8:53 am 08:53 Cloudy 72 22.2 66 18.9 82 82 Calm 30.15 1021 10 16.09344 0 0
9:53 am 09:53 Cloudy 73 22.8 66 18.9 79 79 VRB 3 6 30.18 1022 10 16.09344 0 0
10:53 am 10:53 Sunny 79 26.1 68 20 69 69 WSW 6 9 30.18 1022 10 16.09344 0 0
11:53 am 11:53 Sunny 81 27.2 68 20 65 65 VRB 6 9 30.15 1021 10 16.09344 0 0
12:53 pm 12:53 Sunny 83 28.3 69 20.6 63 63 VRB 5 7 30.15 1021 10 16.09344 0 0
1:53 pm 13:53 Sunny 86 30 69 20.6 57 57 VRB 3 6 30.12 1020 10 16.09344 0 0
2:53 pm 14:53 Mostly Sunny 86 30 67 19.4 53 53 WSW 9 15 30.12 1020 10 16.09344 0 0
3:53 pm 15:53 Mostly Sunny 87 30.6 67 19.4 51 51 SSW 6 9 30.12 1020 10 16.09344 0 0
4:53 pm 16:53 Sunny 87 30.6 67 19.4 51 51 VRB 5 7 30.12 1020 10 16.09344 0 0
5:53 pm 17:53 Sunny 86 30 65 18.3 49 49 SW 6 9 30.09 1019 10 16.09344 0 0
6:53 pm 18:53 Sunny 83 28.3 66 18.9 57 57 SW 3 6 30.12 1020 10 16.09344 0 0
7:53 pm 19:53 Clear 73 22.8 67 19.4 81 81 Calm 30.12 1020 10 16.09344 0 0
8:53 pm 20:53 Mostly Clear 72 22.2 66 18.9 82 82 Calm 30.12 1020 10 16.09344 0 0
9:53 pm 21:53 Clear 70 21.1 66 18.9 87 87 Calm 30.15 1021 10 16.09344 0 0
10:53 pm 22:53 Mostly Clear 69 20.6 66 18.9 90 90 Calm 30.15 1021 10 16.09344 0 0
11:53 pm 23:53 Partly Cloudy 69 20.6 67 19.4 93 93 Calm 30.18 1022 10 16.09344 0 0

Powered by AerisWeather